Location: Poughquag
(41.6090°N, 73.6820°W)
Time: 14:55:39
(UTC-04:00)

Altair - Pass Details

Date: 04 June 2020
Orbit: 1501 x 1683 km, 47.2° (Epoch: 05 July)

Event Time Altitude Azimuth Distance (km) Brightness Sun altitude
Rises 03:14:39 0° 295° (WNW) 4,922 10.1 -18.0°
Reaches altitude 10° 03:17:48 10° 295° (WNW) 3,942 9.5 -17.7°
Maximum altitude 03:28:01 83° 209° (SSW) 1,693 7.6 -16.6°
Drops below altitude 10° 03:38:06 10° 124° (ESE) 3,901 9.7 -15.4°
Sets 03:41:12 0° 123° (ESE) 4,869 10.2 -15.0°
